Location: Holyhead Bay
(53.3667°N, 4.6667°W)
Time: 19:09:37
(UTC+00:00)

Cosmos 2150 Rocket - Pass Details

Date: 24 November 2020
Orbit: 749 x 807 km, 74.0° (Epoch: 16 January)

Event Time Altitude Azimuth Distance (km) Brightness Sun altitude
Rises 16:48:51 0° 334° (NNW) 3,230 7.2 -5.8°
Reaches altitude 10° 16:51:16 10° 337° (NNW) 2,295 6.4 -6.1°
Maximum altitude 16:56:26 66° 60° (ENE) 820 4.0 -6.8°
Drops below altitude 10° 17:01:33 10° 144° (SE) 2,268 6.3 -7.5°
Sets 17:03:55 0° 147° (SSE) 3,189 7.1 -7.8°
